#timestamp,LO_Frequency,Hit,StdDev 
1509307215.0,286047013.8,N
1509307215.9,286047013.8,N
1509307235.8,286047011.2,N
1509307255.6,286047007.8,N
1509307275.4,286047006.2,N
1509307295.3,286047006.8,N
1509307315.1,286047004.9,N
1509307316.0,286047004.9,N
1509307335.8,286047004.0,N
1509307355.7,286047006.6,N
1509307375.5,286047005.3,N
1509307395.3,286047004.4,N
1509307415.2,286047001.0,N
1509307435.9,286047001.7,N
1509307455.7,286047003.7,N
1509307475.6,286047002.8,N
1509307495.4,286046995.5,N
1509307515.2,286046998.9,N
1509307535.1,286047000.1,N
1509307536.0,286047000.1,N
1509307555.8,286047000.8,N
1509307575.7,286046998.5,N
1509307595.5,286046999.6,N
1509307615.3,286046998.8,N
1509307635.1,286046999.0,N
1509307655.9,286047000.1,N
1509307675.7,286047001.3,N
1509307695.5,286047000.4,N
1509307715.4,286046999.1,N
1509307735.2,286047001.2,N
1509307755.0,286047002.6,N
1509307756.0,286047002.6,N
1509307775.8,286047003.5,N
1509307795.6,286047001.5,N
1509307815.5,286047001.9,N
1509307835.3,286047000.1,N
1509307855.1,286047002.2,N
1509307875.9,286047001.6,N
1509307895.7,286047002.0,N
1509307915.5,286047001.7,N
1509307935.4,286047001.8,N
1509307955.2,286047004.4,N
1509307975.0,286047008.5,Y
1509307975.9,286047008.5,P
1509307995.8,286047005.1,N
1509308015.6,286047007.2,N
1509308035.4,286047007.6,N
1509308055.3,286047002.0,N
1509308075.1,286046999.2,N
1509308095.8,286046995.8,N
1509308115.7,286046993.8,N
1509308135.5,286047002.3,N
1509308155.3,286047004.1,N
1509308175.2,286047008.4,N
1509308195.0,286047011.4,N
1509308195.9,286047011.4,N
1509308215.7,286047011.2,N
1509308235.6,286047009.6,N
1509308255.4,286047008.1,N
1509308275.2,286047011.6,N
1509308295.1,286047011.5,N
1509308296.0,286047011.5,N
1509308315.8,286047015.3,N
1509308335.6,286047012.7,N
1509308355.5,286047009.3,N
1509308375.3,286047009.7,N
1509308395.1,286047011.8,N
1509308415.9,286047012.6,N
1509308435.7,286047011.7,N
1509308455.5,286047012.3,N
1509308475.4,286047012.1,N
1509308495.2,286047012.7,N
1509308515.0,286047013.0,N
1509308516.0,286047013.0,N
1509308535.8,286047014.3,N
1509308555.6,286047015.9,Y
1509308575.5,286047008.1,P
1509308595.3,286047010.8,P
1509308615.1,286047014.0,P
1509308635.9,286047015.0,Y
1509308655.7,286047005.5,P
1509308675.5,286047006.0,N
1509308695.4,286047005.9,N
1509308715.2,286047004.2,N
1509308735.0,286047005.6,N
1509308735.9,286047005.6,N
1509308755.8,286047007.5,Y
1509308775.6,286047003.9,P
1509308795.5,286047004.6,P
1509308815.3,286047007.1,P
1509308835.1,286047004.6,Y
1509308855.9,286046995.5,P
1509308875.7,286046993.3,N
1509308895.5,286046991.7,N
1509308915.4,286046991.3,N
1509308935.2,286046989.5,N
1509308955.0,286046987.9,N
1509308955.9,286046987.9,N
1509308975.8,286046987.5,N
1509308995.6,286046988.1,N
1509309015.4,286046993.0,N
1509309035.3,286046997.4,N
1509309055.1,286046990.2,N
1509309075.8,286046990.9,N
1509309095.7,286046991.1,N
1509309115.5,286046987.8,N
1509309135.3,286046989.3,N
1509309155.2,286046984.5,Y
1509309175.0,286046994.1,P
1509309175.9,286046994.1,P
1509309195.8,286046993.7,P
1509309215.6,286046995.3,Y
1509309235.4,286046996.5,P
1509309255.3,286047005.7,P
1509309275.1,286047008.2,N
1509309276.0,286047008.2,N
1509309295.8,286047008.4,N
1509309315.7,286047012.3,N
1509309335.5,286047008.0,N
1509309355.3,286047009.1,N
1509309375.2,286047004.6,N
1509309395.9,286047005.9,N
1509309415.7,286047006.5,N
1509309435.6,286047007.1,N
1509309455.4,286047005.1,N
1509309475.2,286047008.3,N
1509309495.1,286047009.9,N
1509309496.0,286047009.9,N
1509309515.8,286047011.0,N
1509309535.6,286047011.1,N
1509309555.5,286047009.1,N
1509309575.3,286047005.4,N
1509309595.1,286047001.8,N
1509309615.9,286047000.0,N
1509309635.7,286047002.2,N
1509309655.5,286047005.7,N
1509309675.4,286047005.6,N
1509309695.2,286047009.0,N
1509309715.0,286047007.0,N
1509309715.9,286047007.0,N
1509309735.8,286047004.2,N
1509309755.6,286047004.2,N
1509309775.4,286047005.5,N
1509309795.3,286047005.6,N
1509309815.1,286047003.0,N
1509309835.8,286047005.3,N
1509309855.7,286047004.6,N
1509309875.5,286047008.6,N
1509309895.4,286047011.7,Y
1509309915.2,286047003.3,P
1509309935.0,286047001.5,N
1509309935.9,286047001.5,N
1509309955.8,286047001.9,N
1509309975.6,286047005.5,N
1509309995.4,286047000.3,N
1509310015.3,286046999.4,N
1509310035.1,286047002.7,N
1509310055.8,286047004.3,N
1509310075.7,286047007.6,Y
1509310095.5,286047003.1,P
1509310115.3,286047005.7,P
1509310135.2,286047002.2,N
1509310155.0,286047002.5,N
1509310155.9,286047002.5,N
1509310175.8,286046998.5,N
1509310195.6,286046999.5,N
1509310215.4,286046999.8,N
1509310235.3,286047002.2,N
1509310255.1,286047000.6,N
1509310256.0,286047000.6,N
1509310275.8,286046999.2,N
1509310295.7,286046997.0,N
1509310315.5,286046997.3,N
1509310335.3,286046991.9,Y
1509310355.2,286046987.6,P
1509310375.0,286046984.0,N
1509310375.9,286046984.0,N
1509310395.7,286046982.2,N
1509310415.6,286046986.8,N
1509310435.4,286046985.2,N
1509310455.3,286046979.3,Y
1509310475.1,286046994.6,P
1509310476.0,286046994.6,N
1509310495.8,286046995.7,N
1509310515.7,286047000.9,N
1509310535.5,286046999.2,N
1509310555.3,286047000.5,N
1509310575.2,286047005.3,N
1509310595.9,286047004.3,N
1509310615.7,286047003.9,N
1509310635.6,286046998.0,N
1509310655.4,286046992.2,N
1509310675.2,286046994.4,N
1509310695.1,286046992.0,N
1509310696.0,286046992.0,N
1509310715.8,286046995.1,N
1509310735.6,286046996.6,N
1509310755.5,286046999.6,N
1509310775.3,286046997.9,N
1509310795.1,286046996.2,N
